Location: *
(40.4270°N, 9.4940°E)
Time: 12:43:24
(UTC+02:00)

Daily predictions for brighter satellites

Satellite Brightness Start Highest point End
(mag) Time Altitude Azimuth Time Altitude Azimuth Time Altitude Azimuth
Helios 1A 3.2 21:04:50 10° SSE 21:08:57 55° ENE 21:13:05 10° N
ISS -1.7 21:10:12 10° SE 21:10:58 11° SE 21:11:44 10° ESE
Lacrosse 5 rocket 4.4 21:09:38 10° WNW 21:12:25 16° NNW 21:15:15 10° NNE
Cosmos 1943 Rocket 2.2 21:08:27 10° NNW 21:14:06 89° WSW 21:19:39 10° SSE
USA 186 2.4 21:14:02 10° S 21:17:13 57° W 21:20:23 10° NNW
Cosmos 773 Rocket 3.9 21:14:22 10° S 21:19:27 67° ESE 21:24:33 10° NNE
USA 81 4.2 21:15:28 10° SSE 21:20:35 56° E 21:25:46 10° NNE
Cosmos 1544 Rocket 3.5 21:17:04 10° N 21:21:25 88° E 21:25:43 10° S
Cosmos 1437 3.0 21:19:49 10° S 21:22:55 47° E 21:26:03 10° NNE
COSMOS 2455 2.9 21:17:10 10° NNW 21:23:14 88° ENE 21:29:14 10° SSE
Resurs 01 Rocket 3.1 21:20:08 10° SSW 21:24:15 38° W 21:28:24 10° NNW
Meteor 1-29 3.0 21:22:02 10° NNE 21:25:23 56° E 21:28:42 10° S
CZ-4B DEB 2.7 21:23:08 10° SSE 21:26:04 60° ENE 21:29:01 10° N
COSMOS 2406 3.6 21:21:44 10° S 21:27:07 43° ESE 21:32:29 10° NE
RESURS DK-1 3.2 21:23:31 10° SW 21:27:33 54° WNW 21:31:38 10° NNE
YAOGAN 6 3.2 21:24:22 10° SE 21:27:38 38° ENE 21:30:55 10° N
SAR-Lupe-4 3.5 21:24:41 10° SSE 21:28:16 76° ENE 21:31:51 10° N
Cosmos 405 Rocket 3.1 21:27:06 10° SSE 21:30:38 42° E 21:34:14 10° NNE
Okean 1 3.8 21:27:14 10° SSW 21:31:10 62° W 21:35:06 10° N
ARGOS 4.4 21:27:30 10° ESE 21:31:48 26° ENE 21:36:10 10° N
Cosmos 1025 Rocket 4.4 21:31:12 12° SE 21:33:51 20° E 21:37:00 10° NE
Cosmos 1975 3.1 21:30:39 10° NNW 21:34:43 71° W 21:38:45 10° S
Cosmos 292 Rocket 4.3 21:32:15 10° SSW 21:37:04 66° WNW 21:41:52 10° NNE
Cosmos 1680 Rocket 3.7 21:36:27 10° S 21:41:29 49° ESE 21:46:29 10° NNE
Aureole 3 Rocket 3.9 21:35:34 10° S 21:42:26 61° E 21:47:19 10° NNE
Cosmos 1441 Rocket 4.0 21:41:03 14° SSE 21:43:45 30° E 21:47:04 10° NNE
Cosmos 1500 4.3 21:40:34 10° NNW 21:44:09 43° W 21:47:42 10° SSW
SAR-Lupe-1 4.2 21:41:29 10° S 21:45:03 76° WSW 21:48:40 10° NNW
Helios 1B rocket 3.0 21:41:31 10° N 21:45:36 62° WNW 21:49:41 10° SSW
Cosmos 1455 Rocket 3.7 21:42:29 10° NNW 21:46:47 56° W 21:51:01 10° S
SPOT 5 3.7 21:46:08 16° ESE 21:48:47 28° ENE 21:52:29 10° N
Cosmos 1939 Rocket 3.2 21:45:06 10° S 21:48:55 60° W 21:52:46 10° NNW
NOSS 2-2 (E) 3.7 21:47:21 10° SW 21:51:21 74° NW 21:56:00 10° NNE
Envisat 3.8 21:50:14 10° S 21:55:08 49° W 22:00:05 10° NNW
H-2A R/B 4.4 21:56:39 10° E 21:58:23 12° ENE 22:00:08 10° NE
MetOp-B 4.4 21:54:35 17° SE 21:58:38 54° ENE 22:03:51 10° N
PSLV R/B 3.1 21:55:44 10° W 21:58:52 77° N 22:01:06 18° E
ASTEX 1 3.3 21:58:30 13° SSE 22:02:52 77° E 22:07:46 10° N
SL-27 R/B 2.7 22:00:12 14° S 22:03:08 50° ESE 22:06:41 10° NNE
Terra 3.8 22:01:40 12° E 22:03:48 15° ENE 22:06:28 10° NNE
Aureole 1 Rocket 2.2 22:00:35 10° S 22:04:02 61° ESE 22:07:04 10° NNE
DNEPR-1 R/B 3.7 22:00:23 10° NNW 22:04:35 60° NE 22:07:16 23° SE
SPOT 1/Viking Rocket 4.4 22:01:43 19° ESE 22:04:42 34° ENE 22:09:18 10° N
Meteor 2-9 Rocket 4.2 22:02:49 10° N 22:08:16 68° E 22:12:14 20° SSE
Cosmos 1743 3.3 22:04:47 10° NNW 22:08:36 56° W 22:11:59 13° S
CRYOSAT 2 4.3 22:06:07 15° S 22:10:05 82° E 22:14:58 10° N
Meteor 2-4 Rocket 3.7 22:08:11 10° S 22:13:47 85° E 22:19:34 10° N
Cosmos 1238 Rocket 4.1 22:10:31 10° S 22:17:12 81° E 22:23:51 10° N
Cosmos 405 3.0 22:13:57 10° N 22:17:30 64° E 22:18:49 35° SSE
ASTRO E2 4.1 22:15:19 10° SW 22:18:20 21° S 22:18:28 21° S
MOS 1-B Rocket 3.9 22:14:31 20° SSE 22:18:37 80° ENE 22:24:53 10° NNW
Cosmos 2184 Rocket 4.2 22:12:18 10° NNW 22:18:39 72° W 22:24:30 12° S
Cosmos 2074 Rocket 4.3 22:12:54 10° NNW 22:19:06 69° W 22:25:04 11° S
Okean 1-7 Rocket 3.5 22:16:42 17° S 22:20:07 79° E 22:24:38 10° N
Cosmos 1346 4.5 22:18:32 10° SW 22:21:06 34° WNW 22:23:40 10° N
Cosmos 1610 Rocket 4.5 22:16:34 10° N 22:22:53 87° E 22:27:27 20° S
Cosmos 1371 Rocket 4.3 22:18:53 10° N 22:24:08 54° ENE 22:26:40 29° SE
Cosmos 1833 Rocket 4.2 22:24:51 17° E 22:24:51 17° E 22:28:16 10° ENE
USA 267 4.3 22:20:21 10° ENE 22:24:57 22° ESE 22:24:57 22° ESE
Cosmos 1437 Rocket 3.1 22:22:53 10° N 22:26:36 47° ENE 22:27:34 37° ESE
Okean 2 3.3 22:25:42 31° SSE 22:27:27 62° E 22:31:31 10° NNE
OAO 2 Rocket 3.6 22:27:52 10° WSW 22:32:36 45° S 22:34:09 34° SE
Cosmos 1892 Rocket 3.9 22:33:05 36° SE 22:34:17 46° E 22:38:32 10° NNE
Tiangong 2 1.0 22:33:28 10° WSW 22:36:26 65° S 22:36:26 65° S
Cosmos 2228 3.9 22:34:51 10° NNE 22:38:44 32° ENE 22:39:24 30° E
Cosmos 1666 4.1 22:36:17 10° NNW 22:39:42 33° W 22:41:59 17° SSW
CENTAUR R/B 3.6 22:34:22 10° NW 22:42:06 53° WSW 22:47:42 21° S
Meteor 1-23 Rocket 4.4 22:37:09 11° SSW 22:42:26 71° W 22:48:03 10° N
Cosmos 921 Rocket 3.7 22:40:26 10° N 22:44:41 40° ENE 22:45:39 35° E
ERS-1 Rocket 4.1 22:41:29 15° SSW 22:45:15 38° W 22:49:56 10° NNW
USA 245 2.9 22:46:29 54° W 22:46:29 54° W 22:48:54 10° NNW
ISS -3.8 22:43:42 10° SW 22:47:00 81° NW 22:50:18 10° NE
Cosmos 962 Rocket 4.4 22:42:03 10° N 22:48:21 78° E 22:51:20 33° SSE
Cosmos 1606 Rocket 3.4 22:44:42 10° N 22:49:03 86° E 22:50:16 47° SSE
SL-24 DEB 4.1 22:47:36 39° S 22:49:18 86° E 22:53:57 10° N
Meteor 1-15 Rocket 4.3 22:45:27 10° NNW 22:51:03 75° W 22:53:52 30° S
Cosmos 1980 Rocket 4.2 22:49:05 10° N 22:52:36 16° NE 22:55:24 12° E
H-2A R/B 1.8 22:50:58 40° SSE 22:52:46 83° ENE 22:57:47 10° NNW
Cosmos 1726 Rocket 3.4 22:55:46 10° N 23:00:06 86° W 23:01:02 55° S
Cosmos 2154 Rocket 4.4 22:55:57 10° NNW 23:02:12 61° W 23:06:00 25° SSW
DMSP B5D2-2 4.0 22:56:58 10° NNE 23:02:16 69° ESE 23:03:56 43° S
Cosmos 2058 Rocket 3.0 23:01:36 10° N 23:06:01 79° E 23:06:41 63° SSE
SL-8 Rocket 4.0 23:00:44 10° N 23:06:57 67° E 23:09:06 42° SSE
Cosmos 1624 Rocket 4.1 23:03:03 10° NNW 23:08:20 75° WSW 23:09:56 45° S
CARTOSAT-1 3.6 23:08:08 58° ESE 23:08:34 62° ENE 23:12:51 10° N
Cosmos 1515 4.0 23:08:11 52° SW 23:08:49 62° W 23:12:36 10° N
Cosmos 2366 rocket 4.2 23:04:49 10° N 23:10:50 52° ENE 23:12:29 41° SE
ARGOS 4.1 23:09:01 24° SSW 23:11:46 42° W 23:16:55 10° NNW
Meteor 1-4 Rocket 3.6 23:10:20 10° N 23:13:05 35° NE 23:13:05 35° NE
Cosmos 2278 3.6 23:15:55 10° NNW 23:21:40 83° ENE 23:23:00 54° SSE
Cosmos 2082 Rocket 2.2 23:22:42 54° SSE 23:23:36 62° ESE 23:29:12 10° NNE
Landsat 7 4.1 23:25:02 50° SSW 23:25:58 60° W 23:30:42 10° NNW
SPOT 5 4.4 23:25:22 20° SW 23:26:51 24° W 23:30:22 10° NW
Cosmos 2056 Rocket 3.9 23:21:57 10° NNW 23:26:59 53° WSW 23:28:07 44° SW
Timation 2 Rocket 4.4 23:28:03 42° ESE 23:28:17 42° ESE 23:34:05 10° NE
H-2A R/B 2.1 23:33:27 69° SW 23:33:45 72° WSW 23:38:18 10° NNW
Cosmos 1812 Rocket 4.1 23:30:41 10° N 23:34:43 46° ENE 23:34:43 46° ENE
SL-08 R/B 4.3 23:31:03 10° N 23:37:13 83° E 23:38:36 56° SSE
CZ-4C R/B 4.4 23:38:48 33° NNE 23:38:48 33° NNE 23:41:09 10° N
Cosmos 1959 Rocket 4.5 23:31:32 10° N 23:37:56 86° W 23:39:40 51° S
CZ-4B R/B 3.4 23:33:59 10° NNE 23:39:02 71° ESE 23:39:19 69° SE
Cosmos 2369 3.7 23:34:25 10° NNW 23:40:09 72° WSW 23:41:09 58° SSW
CZ-2C R/B 4.3 23:36:49 10° NE 23:40:12 20° E 23:40:12 20° E
Terra 2.0 23:40:33 57° SW 23:41:01 61° W 23:45:45 10° NNW
Cosmos 1626 Rocket 3.6 23:46:01 75° NNW 23:46:01 75° NNW 23:50:03 10° N
Cosmos 2218 Rocket 4.0 23:40:35 10° N 23:46:42 73° W 23:48:15 51° SSW
Spot 4 3.7 23:47:56 82° E 23:48:00 82° ENE 23:52:49 10° N
Cosmos 1420 Rocket 4.1 23:43:26 10° NNW 23:48:40 63° ENE 23:49:00 61° E
SL-16 R/B 4.3 23:46:29 10° N 23:50:08 17° NE 23:52:36 13° E
Cosmos 1697 Rocket 2.6 23:44:57 10° NNW 23:50:35 71° ENE 23:51:13 64° ESE
Cosmos 1048 Rocket 4.3 23:52:39 51° ENE 23:52:39 51° ENE 23:57:04 10° NNE
SME Rocket 4.3 23:51:44 40° E 23:52:15 42° ENE 23:56:29 10° N
